Location: Palomar Mountain Lodge
(33.3110°N, 116.8495°W)
Time: 08:12:48
(UTC-07:00)

NOAA 15 - Visible Passes

Search period start: 11 April 2026 00:00
Search period end: 21 April 2026 00:00
Orbit: 794 x 809 km, 98.5° (Epoch: 11 April)

Date Brightness Start Highest point End Pass type
(mag) Time Alt. Az. Time Alt. Az. Time Alt. Az.
11 Apr 7.4 20:29:32 10° SW 20:32:55 17° W 20:36:20 10° NW visible
12 Apr 6.5 20:01:51 10° SSW 20:06:31 32° W 20:11:11 10° NW visible
13 Apr 5.3 19:35:01 10° S 19:40:12 59° W 19:45:25 10° NNW visible
15 Apr 7.3 20:23:56 10° SW 20:27:39 19° W 20:31:23 10° NW visible
16 Apr 6.3 19:56:28 10° SSW 20:01:15 35° W 20:06:05 10° NNW visible
18 Apr 7.6 20:47:16 10° WSW 20:48:50 11° W 20:50:25 10° WNW visible
19 Apr 7.1 20:18:23 10° SW 20:22:22 22° W 20:26:23 10° NW visible
20 Apr 6.1 19:51:05 10° SSW 19:56:00 40° W 20:00:56 10° NNW visible
